THEOS

Last updated on Sat Jul 05 2025 00:02:28 GMT+0000 (Coordinated Universal Time)

1 33396U 08049A 25185.68328121 .00000016 00000+0 27376-4 0 9992 2 33396 98.6083 248.3069 0001080 93.9644 266.1656 14.20053690868662
UTC large
Height (km)
Speed (km/s)
/
Latitude / Longitude
Inclination (degrees)
Orbital Period (minutes)
Azimuth
Elevation
Range (km)
Doppler Factor

Next 0 passes for location: London (51.5072 / 0.1276)

Sorry there are no passes over London.